Weather History for Ahwaz, Iran

Change the Weather History Date:

Wednesday, September 11, 2013

  Actual Average Record
Temperature  
Mean Temperature 94 °F -  
Max Temperature 109 °F - - ()
Min Temperature 78 °F - - ()
Cooling Degree Days 28    
Growing Degree Days 44 (Base 50)    
Moisture  
Dew Point 58 °F    
Average Humidity 33    
Maximum Humidity 94    
Minimum Humidity 8    
Precipitation  
Precipitation 0.00 in - - ()
Sea Level Pressure  
Sea Level Pressure 29.60 in    
Wind  
Wind Speed 4 mph ()    
Max Wind Speed 12 mph    
Max Gust Speed -    
Visibility 4.1 miles    
Events      
T = Trace of Precipitation, MM = Missing Value Source: Averaged Metar Reports

Daily Weather History Graph

Daily Weather History Graph

Search for Another Location

Airport:

Trip Planner

Search our weather history database for the weather conditions in past years. The results will help you decide how hot, cold, wet, or windy it might be!

Date:

Astronomy

Sep. 11, 2013 Rise Set
Actual Time 6:57 AM IRDT 7:26 PM IRDT
Civil Twilight 6:32 AM IRDT 7:50 PM IRDT
Nautical Twilight 6:04 AM IRDT 8:19 PM IRDT
Astronomical Twilight 5:34 AM IRDT 8:48 PM IRDT
Moon 12:37 PM IRDT (9/11) 11:25 PM IRDT (9/11)
Length of Visible Light 13h 18m
Length of Day
12h 29m
Waxing Crescent, 35% of the Moon is Illuminated
Sep 11
Waxing Crescent
Sep 12
First Quarter
Sep 19
Full
Sep 27
Last Quarter
Oct 5
New

Hourly Weather History & Observations

Time (IRDT) Temp. Heat Index Dew Point Humidity Pressure Visibility Wind Dir Wind Speed Gust Speed Precip Events Conditions
12:30 AM 86.0 °F 89.4 °F 68.0 °F 55% 29.62 in - Calm Calm - N/A   Clear
1:30 AM 84.2 °F 86.6 °F 66.2 °F 55% 29.59 in - Calm Calm - N/A   Clear
2:30 AM 84.2 °F 85.6 °F 64.4 °F 51% 29.59 in 4.3 mi SSE 4.6 mph - N/A   Clear
3:30 AM 82.4 °F 85.4 °F 68.0 °F 62% 29.59 in 4.3 mi SSE 6.9 mph - N/A   Clear
4:30 AM 83 °F - 68 °F 51% 29.61 in 4 mi South 4.5 mph - -   Haze
4:30 AM 82.4 °F 85.4 °F 68.0 °F 62% 29.59 in 4.3 mi South 4.6 mph - N/A   Clear
5:30 AM 82.4 °F 85.4 °F 68.0 °F 62% 29.59 in 4.3 mi Calm Calm - N/A   Clear
6:30 AM 80.6 °F 83.9 °F 69.8 °F 70% 29.62 in 4.3 mi Calm Calm - N/A   Clear
7:30 AM 80.6 °F 86.2 °F 75.2 °F 84% 29.62 in 2.5 mi SSE 6.9 mph - N/A   Clear
8:30 AM 78.8 °F - 77.0 °F 94% 29.65 in 1.2 mi Calm Calm - N/A   Clear
9:30 AM 86.0 °F 95.1 °F 75.2 °F 70% 29.65 in 2.2 mi Calm Calm - N/A   Haze
10:30 AM 91 °F - 66 °F 34% 29.68 in 4 mi ESE 2.2 mph - -   Haze
10:30 AM 91.4 °F 94.0 °F 66.2 °F 43% 29.65 in 3.7 mi ESE 2.3 mph - N/A   Clear
11:30 AM 96.8 °F 98.0 °F 62.6 °F 32% 29.65 in 4.3 mi Calm Calm - N/A   Clear
12:30 PM 100.4 °F 102.4 °F 62.6 °F 29% 29.65 in 5.0 mi East 2.3 mph - N/A   Clear
1:00 PM 102.2 °F 104.2 °F 62.6 °F 27% 29.65 in 5.0 mi NNW 4.6 mph - N/A   Clear
1:30 PM 104.0 °F 105.3 °F 60.8 °F 24% 29.62 in 5.0 mi NNW 4.6 mph - N/A   Clear
2:30 PM 107.6 °F - 51.8 °F 16% 29.62 in - NW 6.9 mph - N/A   Clear
3:00 PM 107.6 °F - 51.8 °F 16% 29.62 in - North 9.2 mph - N/A   Clear
3:30 PM 109.4 °F - 50.0 °F 14% 29.59 in - NNE 11.5 mph - N/A   Clear
4:00 PM 109.4 °F - 50.0 °F 14% 29.59 in - North 6.9 mph - N/A   Clear
4:30 PM 109 °F - 51 °F 8% 29.60 in 6 mi North 8.9 mph - -  
4:30 PM 109.4 °F - 50.0 °F 14% 29.59 in - North 9.2 mph - N/A   Clear
5:30 PM 109.4 °F - 51.8 °F 15% 29.56 in - NNE 4.6 mph - N/A   Clear
6:00 PM 107.6 °F - 50.0 °F 15% 29.56 in - North 4.6 mph - N/A   Clear
6:30 PM 107.6 °F - 51.8 °F 16% 29.56 in - WNW 6.9 mph - N/A   Clear
7:00 PM 105.8 °F - 51.8 °F 17% 29.56 in - NW 4.6 mph - N/A   Clear
7:30 PM 104.0 °F - 51.8 °F 17% 29.56 in - NW 9.2 mph - N/A   Clear
8:00 PM 104.0 °F - 51.8 °F 17% 29.56 in - NW 6.9 mph - N/A   Clear
8:30 PM 102.2 °F - 50.0 °F 17% 29.56 in - NW 6.9 mph - N/A   Clear
9:00 PM 100.4 °F - 50.0 °F 18% 29.56 in - NW 9.2 mph - N/A   Clear
9:30 PM 98.6 °F - 50.0 °F 19% 29.59 in - NW 9.2 mph - N/A   Clear
10:00 PM 98.6 °F - 50.0 °F 19% 29.59 in - NW 6.9 mph - N/A   Clear
10:30 PM 98 °F - 48 °F 11% 29.62 in 6 mi NW 8.9 mph - -  
10:30 PM 98.6 °F - 48.2 °F 18% 29.59 in - NW 9.2 mph - N/A   Clear
11:00 PM 98.6 °F - 48.2 °F 18% 29.59 in - NW 9.2 mph - N/A   Clear
11:30 PM 96.8 °F - 48.2 °F 19% 29.62 in - NNW 9.2 mph - N/A   Clear